SCP
1 0 0 0 0 0 0 0 0 0 0 0 0 0 0 0 0 0 0 0 0 0 0 0 0 0 0 0 0 0 0 0 0 0 0 0 0 0 0 0 0 0 0 0
0 0 0 0 0 0 0 0 0 0 0 0 0 0 0 0 0 0 0 0 0 0 0 0 0 0 0 0 0 0 0 0 0 0 0 0 0 0 0 0 0 0 0 0
0 0 0 0 0 0 0 0 0 0 0 0 0 0 0 0 0 0 0 0 0 0 0 0 0 0 0 0 0 0 0 0 0 0 0 0 0 0 0 0 0 0 -0 -0
0 0 0 0 0 0 0 0 0 0 0 0 0 0 0 0 0 0 0 0 0 0 0 0 0 0 0 0 0 0 0 0 0 0 0 0 0 0 0 0 0 0 0 0
0 0 0 0 0 0 0 0 0 0 0 0 0 0 0 0 0 0 0 0 0 0 0 0 0 0 0 0 0 0 0 0 0 0 0 0 0 0 0 0 0 0 0 0
0 0 0 0 0 0 0 0 0 0 0 0 0 0 0 0 0 0 0 0 0 0 0 0 0 0 0 0 0 0 0 0 0 0 0 0 0 0 0 0 0 0 0 0
0 0 0 0 0 0 0 0 0 0 0 0 0 0 0 0 0 0 0 0 0 0 0 0 0 0 0 0 0 0 0 0 0 0 0 0 0 0 0 0 0 0 0 0
0 0 0 0 0 0 0 0 0 0 0 0 0 0 0 0 -0 -0 -0 -0 0 0 0 0 0 0 0 0 0 0 0 0 0 0 0 0 0 0 0 0 0 0 0 0
0 0 0 0 0 0 0 0 0 0 0 0 0 0 0 0 0 0 0 0 0 0 0 0 0 0 0 0 0 0 0 0 0 0 0 0 0 0 0 0 0 0 0 0
0 0 0 0 0 0 0 0 0 0 0 0 0 0 0 0 0 0 0 0 0 0 0 0 0 0 0 0 0 0 0 0 0 0 0 0 0 0 0 0 0 0 0 0
0 0 0 0 0 0 0 0 0 0 0 0 0 0 0 0 0 0 0 0 0 0 0 0 0 0 0 0 0 0 0 0 0 0 0 0 0 0 0 0 0 0 0 0
0 0 0 0 0 0 0 0 0 0 0 0 0 0 0 0 0 0 0 0 0 0 0 0 0 0 0 0 0 0 0 0 0 0 0 0 0 0 0 0 0 0 0 0
0 0 0 0 0 0 0 0 0 0 0 0 0 0 0 0 0 0 0 0 0 0 0 0 0 0 0 0 0 0 0 0 0 0 0 0 0 0 0 0 0 0 0 0
0 0 0 0 0 0 0 0 0 0 0 0 0 0 0 0 0 0 0 0 0 0 0 0 0 0 0 0 0 0 0 0 0 0 0 0 0 0 0 0 0 0 0 0
0 0 0 0 0 0 0 0 0 0 0 0 0 0 0 0 0 0 0 0 0 0 0 0 0 0 0 0 0 0 0 0 0 0 0 0 0 0 0 0 0 0 0 0
0 0 0 0 0 0 0 0 0 0 0 0 0 0 0 0 0 0 0 0 0 0 0 0 0 0 0 0 0 0 0 0 0 0 0 0 0 0 0 0 0 0 0 0
0 0 0 0 0 0 0 0 0 0 0 0 0 0 0 0 0 0 0 0 0 0 0 0 0 0 0 0 0 0 0 0 0 0 0 0 0 0 0 0 0 0 0 0
0 0 0 0 0 0 0 0 0 0 0 0 0 0 0 0 0 0 0 0 0 0 0 0 0 0 0 0 0 0 0 0 0 0 0 0 0 0 0 0 0 0 0 0
0 0 0 0 0 0 0 0 0 0 0 0 0 0 0 0 0 0 0 0 0 0 0 0 0 0 0 0 0 0 0 0 0 0 0 0 0 0 0 0 0 0 0 0
0 0 0 0 0 0 0 0 0 0 0 0 0 0 0 0 0 0 0 0 0 0 0 0 0 0 0 0 0 0 0 0 0 0 0 0 0 0 0 0 0 0 0 0
0 0 0 0 0 0 0 0 0 0 0 0 0 0 0 0 0 0 0 0 0 0 0 0 0 0 0 0 0 0 0 0 0 0 0 0 0 0 0 0 0 0 0 0
0 0 0 0 0 0 0 0 0 0 0 0 0 0 0 0 0 0 0 0 0 0 0 0 0 0 0 0 0 0 0 0 0 0 0 0 0 0 0 0 0 0 0 0
0 0 0 0 0 0 0 0 0 0 0 0 0 0 0 0 0 0 0 0 0 0 0 0 0 0 0 0 0 0 0 0 0 0 0 0 0 0 0 0 0 0 0 0
0 0 0 0 0 0 0 0 0 0 0 0 0 0 0 0 0 0 0 0 0 0 0 0 0 0 0 0 0 0 0 0 0 0 0 0 0 0 0 0 0 0 0 0
0 0 0 0 0 0 0 0 0 0 0 0 0 0 0 0 0 0 0 0 0 0 0 0 0 0 0 0 0 0 0 0 0 0 0 0 0 0 0 0 0 0 0 0
0 0 0 0 0 0 0 0 0 0 0 0 0 0 0 0 0 0 0 0 0 0 0 0 0 0 0 0 0 0 0 0 0 0 0 0 0 0 0 0 0 0 0 0
Wind_Speed
4 5 5 9 8 4 5 5 5 5 4 6 7 9 7 4 6 7 6 7 7 7 5 4 4 4 3 2 2 1 1 1 1 1 1 2 2 2 3 3 4 4 4 4
5 3 7 6 5 3 4 4 5 4 2 4 4 8 7 6 8 9 9 9 9 6 5 5 5 4 3 3 3 2 2 1 1 0 0 0 1 2 2 3 4 4 4 4
6 4 6 6 5 5 4 6 5 3 1 1 2 7 5 3 4 5 6 7 8 10 10 8 6 5 4 4 5 4 3 2 1 1 1 1 2 2 3 3 3 4 4 4
3 2 5 5 5 7 5 6 4 2 2 2 0 4 8 3 3 5 7 7 8 8 8 7 7 6 6 6 4 4 4 3 2 0 1 1 1 1 2 2 3 4 4 4
3 4 4 5 5 7 4 2 3 2 2 2 1 2 9 2 4 7 8 8 8 8 9 9 9 8 6 5 5 4 4 3 2 1 1 1 0 1 2 2 3 4 4 4
1 2 3 3 1 4 4 6 6 6 5 2 3 4 8 5 7 5 5 7 8 8 8 8 6 5 4 4 4 4 4 4 3 2 1 1 1 1 1 2 2 3 3 3
2 0 1 2 3 3 4 5 4 4 3 6 2 3 10 6 6 6 6 8 8 8 8 8 7 7 6 6 5 5 5 4 3 3 2 3 3 2 2 1 1 2 2 2
3 2 3 3 4 5 4 7 6 4 4 5 2 6 9 6 4 4 4 5 7 8 8 9 9 8 8 7 6 5 5 5 4 4 4 3 3 2 2 2 2 2 2 2
5 4 2 1 3 8 6 3 5 6 2 2 6 7 9 2 1 2 3 5 7 9 9 9 8 8 8 7 7 7 6 6 5 4 4 3 3 3 3 2 2 2 2 2
5 2 1 1 5 4 4 8 6 5 3 3 6 5 6 6 6 4 5 7 8 7 7 7 7 8 7 7 6 5 6 6 5 4 4 3 4 4 3 2 2 2 2 2
3 3 1 1 3 5 4 4 5 5 4 5 3 9 7 8 8 8 9 8 8 8 9 9 8 7 7 6 5 5 5 5 5 5 4 4 3 3 3 2 3 2 2 1
3 5 1 4 2 2 5 7 8 5 4 4 3 11 7 6 7 7 8 7 7 8 8 8 8 6 6 6 6 6 6 6 5 4 4 4 3 2 3 3 3 2 2 2
6 6 2 6 5 1 2 4 4 6 6 5 5 10 5 3 4 6 7 7 6 6 6 6 6 6 7 7 6 6 6 6 5 4 4 4 3 3 4 4 3 2 2 2
6 5 6 7 7 4 4 4 5 7 5 6 9 11 9 6 6 6 7 6 6 6 6 6 6 7 7 7 6 6 6 5 4 4 4 5 5 4 4 4 3 3 3 2
5 4 5 6 5 3 5 6 7 8 9 10 10 10 13 10 10 9 7 6 6 6 6 8 8 7 7 6 6 6 6 5 4 5 5 6 5 4 4 4 4 3 3 4
3 3 2 4 4 4 5 8 8 9 7 8 8 11 12 8 4 5 7 8 8 9 9 9 8 8 8 8 7 6 6 5 5 5 6 5 4 4 4 5 4 4 4 4
4 6 4 5 4 2 7 10 11 8 9 10 13 15 7 5 9 11 11 10 11 11 10 10 10 9 9 9 8 8 7 5 5 6 5 4 4 5 5 4 4 5 5 4
7 6 4 3 0 7 11 5 7 8 10 11 11 10 9 12 10 7 8 11 11 10 9 9 8 8 7 6 6 5 4 5 5 5 5 4 4 5 4 4 5 5 4 4
6 8 5 4 4 8 10 7 6 7 10 10 14 13 7 4 2 4 7 9 10 10 9 8 8 7 6 6 6 6 5 4 4 4 4 4 4 4 4 4 5 4 4 5
4 5 6 4 4 6 11 6 3 3 8 8 9 11 7 9 5 9 7 8 8 7 6 6 6 6 6 5 7 7 5 4 4 4 3 3 3 3 4 4 4 3 3 4
2 3 4 5 5 10 11 4 4 3 9 6 4 7 10 12 10 6 7 7 7 7 6 7 7 6 6 6 8 7 5 4 4 2 1 1 1 2 2 2 1 2 2 3
7 6 6 5 5 11 5 4 6 8 6 5 4 6 10 10 4 4 8 9 9 7 7 7 8 6 5 6 8 7 5 4 3 3 3 2 1 1 1 0 1 1 1 2
6 8 7 10 10 6 2 6 7 5 6 7 5 6 8 7 6 7 7 8 9 9 8 7 8 7 5 5 7 8 5 4 5 5 4 3 3 2 2 2 2 2 2 1
4 1 2 5 9 8 7 6 6 5 7 8 7 6 6 8 8 8 8 8 8 8 8 8 9 9 6 5 5 6 5 6 6 6 4 3 3 3 4 3 3 2 2 2
5 1 3 7 9 10 7 5 6 7 8 7 6 4 7 8 8 10 10 10 10 8 8 9 10 10 8 6 6 5 6 7 7 6 5 4 4 4 3 3 3 3 3 3
5 5 5 8 7 6 12 11 9 10 11 9 7 6 5 8 10 10 11 10 10 10 9 9 9 10 9 8 7 6 6 7 8 6 4 3 3 3 3 3 4 7 6 10
Wind_Direction
103 106 166 191 190 182 178 193 234 249 193 179 226 255 265 207 204 214 209 202 204 210 204 190 189 171 154 158 163 181 211 319 3 14 11 5 350 341 351 357 4 7 9 10
87 189 201 179 177 154 172 207 247 275 183 185 252 273 268 208 206 208 206 204 202 195 186 189 186 178 179 184 192 209 232 269 295 281 260 248 291 310 311 327 356 10 10 8
151 201 158 144 154 168 197 204 219 223 64 66 337 309 297 268 225 212 201 195 194 192 191 189 186 191 191 200 205 210 228 246 266 302 41 31 21 4 359 351 347 345 357 8
148 172 155 155 177 163 227 226 204 160 107 291 72 286 291 294 268 226 212 194 195 194 187 186 187 193 202 211 212 217 228 241 253 238 89 90 74 346 305 307 315 331 355 5
185 170 159 181 200 176 206 60 117 105 126 349 323 208 285 307 259 245 222 206 200 192 186 188 192 196 203 206 207 216 227 245 254 237 169 128 160 258 294 314 334 345 347 356
151 186 185 195 139 156 123 71 58 51 70 309 240 179 276 243 226 241 219 203 197 189 187 191 192 190 204 207 212 216 224 245 249 240 220 200 217 254 319 335 342 339 334 338
42 323 230 150 101 75 99 90 34 355 6 256 264 209 251 257 240 228 218 204 191 182 180 183 186 195 205 209 216 218 223 244 247 239 240 227 227 230 243 271 303 322 329 329
142 262 226 184 169 162 160 139 158 204 232 281 299 239 256 262 268 235 210 186 176 181 185 190 195 197 203 210 215 217 222 238 244 239 244 236 228 223 241 253 258 277 281 290
163 236 292 189 158 133 133 161 157 131 171 284 283 284 299 250 233 168 165 166 185 192 192 197 199 201 206 212 216 214 218 234 242 238 238 239 236 232 245 259 262 271 278 289
151 182 294 137 86 46 134 139 105 115 152 268 296 282 258 251 233 213 199 201 208 201 198 201 202 205 210 216 220 216 218 229 238 235 229 231 235 236 242 252 268 277 290 311
130 144 327 38 186 178 114 102 105 110 146 158 270 275 234 231 222 213 217 213 208 202 201 202 204 207 211 217 218 219 225 231 238 233 228 237 246 242 239 245 260 271 287 305
137 119 212 267 273 190 176 169 148 152 203 175 190 268 267 251 241 220 223 222 214 207 204 201 201 199 204 215 219 220 226 230 233 224 221 234 245 244 241 250 262 263 273 288
139 114 64 344 339 329 198 170 156 128 123 157 181 263 293 296 248 226 225 226 217 208 200 193 193 198 207 214 219 222 225 229 228 212 217 232 240 237 242 250 258 255 255 272
118 125 164 205 228 214 216 185 159 138 159 201 220 248 285 276 253 238 226 219 208 204 196 192 199 207 210 213 215 220 229 225 214 203 212 228 235 234 239 245 246 246 244 253
118 180 219 235 237 212 228 221 185 192 197 200 230 231 250 243 231 229 218 205 196 201 201 202 205 208 209 214 218 220 227 221 202 200 216 230 234 233 237 240 241 243 246 248
124 184 203 271 260 226 250 250 218 219 217 222 243 257 248 245 227 223 211 196 201 209 209 208 207 205 207 211 213 214 222 215 194 206 225 232 228 231 236 239 239 242 249 255
162 154 157 255 290 3 271 235 216 214 207 193 220 240 237 212 215 216 208 198 204 208 207 205 204 203 206 207 203 207 213 198 194 214 228 227 224 232 237 236 235 240 244 247
159 154 163 215 343 246 247 239 213 224 240 216 228 239 215 214 221 220 200 194 205 205 203 205 202 201 203 198 193 193 181 183 198 216 230 230 225 236 240 235 241 244 241 242
162 147 141 153 219 271 290 271 201 206 263 230 225 238 228 199 126 271 213 196 202 199 195 195 190 185 180 181 176 159 165 173 187 213 229 231 220 228 234 239 247 244 241 249
79 116 131 148 190 244 253 256 183 144 278 260 215 225 185 138 174 242 207 188 197 189 179 172 161 152 159 168 151 147 159 163 193 216 228 228 210 215 229 242 251 247 240 254
108 114 158 177 213 258 256 264 131 180 250 279 218 204 173 186 205 208 160 171 173 168 163 152 146 151 164 154 144 147 153 178 202 193 173 152 188 210 228 251 261 268 269 277
188 180 194 158 185 251 257 139 181 228 273 290 259 206 196 213 197 152 164 166 159 152 147 145 142 144 145 146 145 146 164 180 152 131 115 93 66 52 68 57 339 335 319 311
206 196 191 191 214 235 223 218 247 262 275 277 269 249 207 201 197 185 176 169 163 158 153 146 141 135 132 147 149 150 166 150 131 114 103 87 70 55 48 57 34 19 15 356
280 183 199 261 271 271 268 262 269 263 256 271 267 254 209 202 195 184 175 171 164 159 156 147 142 140 141 143 142 147 144 135 123 115 105 90 79 60 47 48 49 49 28 13
265 268 270 274 284 308 306 302 307 305 296 292 287 248 219 207 195 185 181 179 172 162 156 154 153 150 149 144 138 140 140 131 120 114 106 93 83 78 63 55 53 53 43 50
225 224 235 258 275 285 292 306 317 309 303 298 293 285 251 210 205 190 187 180 170 163 155 153 150 147 148 144 140 141 142 135 127 120 114 106 97 83 76 75 57 45 54 51